EHI
0 0 0 0 0 0 0 0 0 0 0 0 0 0 0 0 0 0 0 0 0 0 0 0 0 0 0 0 0 0 0 0 0 0 0 0 0 0 0 0 0 0 0
0 0 0 0 0 0 0 0 0 0 0 0 0 0 0 0 0 0 0 0 0 0 0 0 0 0 0 0 0 0 0 0 0 0 0 0 0 0 0 0 0 0 0
0 0 0 0 0 0 0 0 0 0 0 0 0 0 0 0 0 0 0 0 0 0 0 0 0 0 0 0 0 0 0 0 0 0 0 0 0 0 0 0 0 0 0
0 0 0 0 0 0 0 0 0 0 0 0 0 0 0 0 0 0 0 0 0 0 0 0 0 0 0 0 0 0 0 0 0 0 0 0 0 0 0 0 0 0 0
0 0 0 0 0 0 0 0 0 0 0 0 0 0 0 0 0 0 0 0 0 0 0 0 0 0 0 0 0 0 0 0 0 0 0 0 0 0 0 0 0 0 0
0 0 0 0 0 0 0 0 0 0 0 0 0 0 0 0 0 0 0 0 0 0 0 0 0 0 0 0 0 0 0 0 0 0 0 0 0 0 0 0 0 0 0
0 0 0 0 0 0 0 0 0 0 0 0 0 0 0 0 0 0 0 0 0 0 0 0 0 0 0 0 0 0 0 0 0 0 0 0 0 0 0 0 0 0 0
0 0 0 0 0 0 0 0 0 0 0 0 0 0 0 0 0 0 0 0 0 0 0 0 0 0 0 0 0 0 0 0 0 0 0 0 0 0 0 0 0 0 0
0 0 0 0 0 0 0 0 0 0 0 0 0 0 0 0 0 0 0 0 0 0 0 0 0 0 0 0 0 0 0 0 0 0 0 0 0 0 0 0 0 0 0
0 0 0 0 0 0 0 0 0 0 0 0 0 0 0 0 0 0 0 0 0 0 0 0 0 0 0 0 0 0 0 0 0 0 0 0 0 0 0 0 0 0 0
0 1 2 1 1 0 0 0 0 0 0 0 0 0 0 0 0 0 0 0 0 0 0 0 0 0 0 0 0 0 0 0 0 0 0 0 0 0 0 0 0 0 0
2 5 7 6 4 2 1 0 0 0 0 0 0 0 0 0 0 0 0 0 0 0 0 0 0 0 0 0 0 0 0 0 0 0 0 0 0 0 0 0 0 0 0
2 8 13 14 9 5 3 1 1 0 0 0 0 0 0 0 0 0 0 0 0 0 0 0 0 0 0 0 0 0 0 0 0 0 0 0 0 0 0 0 0 0 0
1 6 14 17 12 6 4 4 2 1 0 0 0 0 0 0 0 0 0 0 0 0 0 0 0 0 0 0 0 0 0 0 0 0 0 0 0 0 0 0 0 0 0
0 2 8 13 10 6 5 5 3 1 0 0 0 0 0 0 0 0 0 0 0 0 0 0 0 0 0 0 0 0 0 0 0 0 0 0 0 0 0 0 0 0 0
0 0 3 6 6 6 5 4 3 1 0 0 0 0 0 0 0 0 0 0 0 0 0 0 0 0 0 0 0 0 0 0 0 0 0 0 0 0 0 0 0 0 0
0 1 1 2 2 3 3 3 2 1 0 0 0 0 0 0 0 0 0 0 0 0 0 0 0 0 0 0 0 0 0 0 0 0 0 0 0 0 0 0 0 0 0
1 1 2 1 1 1 1 2 2 1 0 0 0 0 0 0 0 0 0 0 0 0 0 0 0 0 0 0 0 0 0 0 0 0 0 0 0 0 0 0 0 0 0
1 2 3 3 3 2 1 1 1 0 0 0 0 0 0 0 0 0 0 0 0 0 0 0 0 0 0 0 0 0 0 0 0 0 0 0 0 0 0 0 0 0 0
2 3 3 4 5 4 3 1 0 0 0 0 0 0 0 0 0 0 0 0 0 0 0 0 0 0 0 0 0 0 0 0 0 0 0 0 0 0 0 0 0 0 0
3 3 3 3 4 4 3 1 0 0 0 0 0 0 0 0 0 0 0 0 0 0 0 0 0 0 0 0 0 0 0 0 0 0 0 0 0 0 0 0 0 0 0
3 3 2 1 2 2 1 1 0 0 0 0 0 0 0 0 0 0 0 0 0 0 0 0 0 0 0 0 0 0 0 0 0 0 0 0 0 0 0 0 0 0 0
2 2 2 1 1 1 0 0 0 0 0 0 0 0 0 0 0 0 0 0 0 0 0 0 0 0 0 0 0 0 0 0 0 0 0 0 0 0 0 0 0 0 0
1 1 2 2 2 2 1 0 0 0 0 0 0 0 0 0 0 0 0 0 0 0 0 0 0 0 0 0 0 0 0 0 0 0 0 0 0 0 0 0 0 0 0
0 0 1 1 2 2 1 0 0 1 1 0 0 0 0 0 0 0 0 0 0 0 0 0 0 0 0 0 0 0 0 0 0 0 0 0 0 0 0 0 0 0 0
0 0 0 0 1 1 1 0 1 2 2 1 0 0 0 0 0 0 0 0 0 0 0 0 0 0 0 0 0 0 0 0 0 0 0 0 0 0 0 0 0 0 0
Wind_Speed
12 16 17 16 16 15 14 14 13 13 12 12 12 12 12 12 12 12 12 12 12 13 14 15 15 16 15 15 15 15 14 14 14 13 12 12 12 12 11 9 7 10 11
16 17 17 15 16 15 14 14 13 12 11 11 11 12 12 12 12 12 13 13 13 14 14 15 15 15 15 14 14 14 13 13 12 10 6 8 9 10 11 11 11 9 11
17 17 18 14 15 15 15 14 13 12 11 11 11 11 12 12 12 12 13 13 14 14 15 15 15 14 14 13 12 12 12 11 10 6 1 7 10 10 10 10 10 11 11
17 16 16 15 15 15 15 14 12 11 10 10 10 11 11 12 12 12 12 13 13 14 14 14 13 13 12 11 11 11 10 10 7 3 5 8 8 10 10 10 10 11 10
16 14 16 15 15 15 15 13 12 11 10 10 10 10 11 11 12 12 12 12 12 13 13 12 12 11 11 10 10 10 9 8 3 3 7 7 8 10 10 10 10 10 10
16 14 16 14 15 15 14 13 12 11 10 10 10 10 11 11 12 12 12 12 11 11 11 11 11 10 10 10 9 9 8 4 0 7 6 7 8 9 9 9 9 9 9
15 14 16 14 15 14 13 12 11 10 10 9 9 9 10 11 11 11 11 11 10 10 10 10 9 9 9 9 9 8 7 3 4 5 5 6 8 8 8 8 8 7 8
13 13 15 15 14 13 13 12 11 10 9 9 9 9 10 11 10 10 10 10 9 9 9 8 8 8 8 8 7 7 5 2 3 4 5 6 7 6 7 7 7 7 7
13 12 13 14 14 12 11 10 10 9 8 8 8 8 9 9 9 9 9 8 8 8 7 7 7 7 7 7 6 5 4 2 2 3 3 4 5 5 5 5 5 6 6
11 11 12 12 12 12 12 10 9 8 8 8 8 8 9 8 8 7 7 6 6 6 6 6 5 5 6 5 5 4 2 4 1 1 1 3 2 2 2 2 3 3 3
11 10 11 11 11 10 10 10 10 9 7 8 8 9 7 6 7 6 5 5 4 5 5 4 4 4 4 5 4 2 4 2 1 1 1 3 2 2 1 1 1 1 1
13 12 10 10 10 9 7 8 7 7 8 7 7 8 5 4 3 3 7 4 3 3 3 3 3 4 4 3 4 5 3 3 3 2 0 0 5 5 4 3 3 2 2
12 11 10 10 9 9 7 6 4 4 5 6 6 6 4 4 3 3 4 5 5 5 4 4 5 4 3 2 2 3 3 4 3 3 2 3 6 7 7 6 5 5 5
11 11 10 9 9 9 7 6 5 4 4 4 5 6 4 3 3 3 3 3 3 3 3 3 3 3 4 4 5 5 5 4 4 3 2 4 8 9 9 9 8 8 8
11 11 11 10 10 8 7 5 5 5 5 5 4 5 5 4 4 4 3 3 4 3 4 4 4 4 5 5 5 6 6 6 6 6 4 6 9 11 12 12 11 10 10
11 11 10 11 11 9 8 7 6 5 5 5 5 6 6 5 4 4 4 4 4 4 4 4 5 4 5 5 6 7 7 7 7 7 6 5 10 11 13 13 13 13 12
10 11 11 10 10 10 9 8 6 6 6 5 5 6 7 6 5 5 5 4 5 5 5 5 5 5 5 5 7 8 7 8 7 8 8 6 6 10 13 14 14 14 14
9 10 10 8 10 11 9 8 6 6 6 5 5 5 7 7 7 6 5 5 5 4 4 5 5 5 6 6 6 6 6 6 9 9 8 7 7 6 8 12 13 14 14
9 10 10 9 10 10 9 7 6 5 6 5 5 5 6 7 7 7 6 5 5 5 5 5 5 6 6 6 6 6 7 7 8 8 9 9 7 7 6 5 9 11 12
7 8 8 8 8 8 6 5 5 5 5 4 4 5 6 6 7 7 6 7 6 5 5 6 7 6 6 6 6 7 8 8 8 8 8 7 6 6 6 6 5 6 9
7 7 8 8 8 6 5 5 5 5 5 4 4 5 5 5 6 6 5 6 6 6 7 8 6 7 6 5 4 6 7 9 9 6 6 5 5 4 5 5 4 4 3
7 7 7 7 6 6 5 4 3 3 3 3 3 3 4 4 5 5 6 5 5 5 7 7 6 5 5 4 5 5 5 6 6 4 4 3 4 3 3 3 4 4 4
7 7 6 6 6 5 5 4 3 3 2 3 4 3 2 3 3 4 5 5 5 5 5 6 6 8 6 5 6 6 5 5 3 3 3 2 2 2 2 3 4 4 5
6 5 6 6 5 4 4 5 6 5 5 4 3 2 2 1 2 2 3 4 4 4 5 6 6 6 7 6 5 6 7 6 5 4 2 2 1 2 3 3 3 4 5
7 6 5 5 5 4 3 4 5 4 3 2 3 3 2 1 0 1 2 3 3 3 4 5 5 5 5 6 5 4 6 6 7 6 6 4 2 1 2 3 3 4 5
7 6 6 6 5 4 4 4 4 5 4 4 4 3 2 1 0 1 2 2 2 2 3 4 4 4 4 5 5 4 4 4 4 5 6 5 3 1 1 3 4 4 5
Wind_Direction
158 154 147 149 144 139 134 128 122 117 114 113 112 110 105 100 94 89 88 89 90 93 94 93 92 90 88 86 83 80 78 76 73 67 64 63 64 66 63 48 46 68 56
151 152 146 150 147 142 135 127 122 118 116 116 115 113 109 103 96 91 89 90 91 93 94 93 91 89 87 85 84 82 80 77 72 67 66 86 70 65 64 55 45 56 55
150 150 151 149 146 141 134 129 125 121 120 120 119 117 111 105 98 94 90 88 91 91 92 91 90 88 85 84 84 83 80 76 70 58 25 80 80 68 67 64 60 56 53
150 153 155 145 145 140 135 132 128 125 124 124 123 121 114 108 101 97 93 91 91 92 92 92 90 87 84 83 84 83 79 74 61 342 63 65 74 70 65 61 57 55 51
151 154 142 145 143 139 136 134 130 128 127 129 128 125 118 112 105 101 97 96 95 96 96 95 91 86 82 82 84 83 79 75 53 47 67 65 71 67 62 58 55 53 50
152 153 142 147 141 139 138 136 134 133 134 135 132 129 123 114 109 106 104 102 102 102 101 99 93 87 82 81 82 83 79 67 92 70 67 64 67 67 62 58 52 49 46
153 152 147 146 142 141 140 139 138 137 136 137 138 135 128 118 113 113 110 109 108 107 106 102 96 90 84 83 82 82 80 20 52 71 65 65 63 58 56 52 48 45 42
153 152 149 144 141 142 142 142 141 139 138 136 137 137 129 122 118 118 117 114 114 113 110 106 99 93 87 86 86 84 78 344 75 68 65 70 60 53 57 53 47 44 42
157 157 154 154 149 143 141 142 142 137 135 136 135 131 124 122 122 123 122 122 120 117 113 109 104 97 92 90 92 92 85 350 359 68 61 65 57 50 56 52 45 42 41
163 163 160 160 159 157 154 144 139 134 133 131 125 121 121 127 130 129 143 128 128 126 122 116 112 104 96 94 96 102 116 246 51 83 71 76 46 36 47 43 40 39 38
170 169 167 164 163 162 156 148 151 145 138 144 138 130 155 165 156 158 125 118 132 134 133 129 123 110 117 121 112 124 224 263 316 314 336 52 311 295 288 285 309 348 17
176 176 174 171 167 164 155 161 164 162 163 179 162 165 180 170 157 156 125 140 137 132 146 136 130 164 223 191 159 202 242 261 268 258 236 349 280 273 261 245 247 244 242
179 178 178 175 173 170 166 168 166 168 171 177 175 176 179 177 171 187 175 171 183 190 197 170 199 219 238 254 259 247 265 270 267 265 228 207 265 270 265 247 241 241 239
185 186 182 180 180 181 177 174 176 178 180 180 182 187 189 192 200 198 207 200 207 207 214 227 243 235 242 244 251 259 253 255 262 267 254 213 256 264 266 259 247 244 241
195 193 188 187 186 184 183 182 186 189 189 186 186 197 203 207 209 206 214 213 223 226 224 235 244 248 253 255 255 260 261 259 260 258 246 215 240 254 260 262 257 249 247
204 200 195 196 195 190 192 192 192 194 192 196 195 203 209 216 218 220 225 226 230 231 239 246 251 258 261 262 264 261 263 265 262 262 265 237 224 241 252 257 259 257 253
206 205 200 201 201 199 201 202 201 201 200 203 204 208 211 219 223 226 235 233 234 234 238 246 253 259 264 263 262 262 264 265 264 264 262 264 250 228 236 249 255 257 257
208 208 204 200 204 206 205 204 205 207 205 208 209 211 216 222 226 231 235 239 240 240 240 243 251 251 253 258 264 265 262 261 264 267 265 258 261 261 237 235 250 257 259
212 207 205 204 209 209 209 208 210 210 210 214 214 218 221 226 229 232 239 244 241 238 239 241 247 252 260 262 267 272 270 266 266 263 263 263 259 261 268 240 235 251 262
209 206 201 199 206 206 205 205 207 212 214 214 217 222 227 229 230 232 238 243 242 237 239 238 244 245 257 270 275 272 270 268 264 261 264 264 261 263 268 277 265 244 244
197 199 198 197 198 197 194 199 204 208 208 210 217 227 230 235 234 232 238 243 237 239 244 245 246 250 248 249 259 269 264 257 257 258 259 266 267 271 276 281 283 289 274
192 192 192 191 191 195 198 196 201 199 210 211 205 217 232 238 241 239 241 245 240 245 248 248 242 245 247 229 243 270 278 266 232 238 252 263 280 286 291 305 306 303 304
187 185 184 182 183 189 192 185 170 176 189 196 202 205 222 239 242 243 247 249 247 243 247 246 241 242 251 241 233 249 265 273 296 219 230 259 285 302 316 332 330 329 325
179 171 174 167 164 169 186 196 199 207 215 214 210 203 201 219 246 257 261 260 256 251 252 254 249 248 254 252 237 238 254 278 277 278 227 226 297 323 337 348 346 351 347
167 162 158 152 145 147 166 187 200 209 213 198 201 205 200 179 288 307 294 280 272 267 265 265 261 250 247 252 249 243 243 249 247 258 270 260 247 329 6 8 6 6 5
161 155 153 148 136 137 146 160 180 188 192 197 206 212 210 202 211 348 328 304 295 289 283 277 273 267 260 258 258 253 250 248 242 244 257 264 267 275 47 33 25 17 13